Regional Weather Roundup
Issued by NWS Newport/Morehead, NC

Current Version | Previous Version | Text Only | Print | Product List | Glossary On
Versions: 1 2 3 4 5 6 7 8 9 10 11 12 13 14 15 16 17 18 19 20 21 22 23 24 25 26 27 28 29 30 31 32 33 34 35 36 37 38 39 40 41 42 43 44 45 46 47 48 49 50
000 ASUS42 KMHX 250113 RWRMHX WEATHER ROUNDUP FOR EASTERN NORTH CAROLINA NATIONAL WEATHER SERVICE NEWPORT/MOREHEAD CITY NC 900 PM EDT MON APR 24 2017 NOTE: "FAIR" INDICATES FEW OR NO CLOUDS BELOW 12,000 FEET WITH NO SIGNIFICANT WEATHER AND/OR OBSTRUCTIONS TO VISIBILITY NCZ015>017-031-032-045>047-102-103-250200- NORTH COAST CITY SKY/WX TMP DP RH WIND PRES REMARKS EDENTON CLOUDY 69 64 82 E8 29.78S ELIZABETH CITY MOCLDY 68 62 81 E15 29.81R KITTY HAWK CLOUDY 64 57 77 E9 29.79F MANTEO CLOUDY 67 57 71 SE14 29.80S $$ NCZ045>047-081-094-103-104-250200- CENTRAL COAST CITY SKY/WX TMP DP RH WIND PRES REMARKS FRISCO LGT RAIN 71 63 75 SE26G38 29.75R $$ NCZ095-097-098-100-101-250200- SOUTHERN COAST CITY SKY/WX TMP DP RH WIND PRES REMARKS BEAUFORT CLOUDY 71 67 87 SE15G24 29.67S CEDAR ISLAND NOT AVBL JACKSONVILLE CLOUDY 69 68 96 E18G26 29.63F PINEY ISLAND CLOUDY N/A N/A N/A SE20G25 29.69S WILMINGTON CLOUDY 66 66 100 N3 29.62S $$ NCZ011>013-027>030-043-044-078>080-089-090>093-098-250200- COASTAL PLAIN CITY SKY/WX TMP DP RH WIND PRES REMARKS AHOSKIE N/A 63 62 97 N9 29.79S CLINTON RAIN 65 65 100 CALM 29.65S ELIZABETHTOWN LGT RAIN 59 59 100 NW7 29.64F GOLDSBORO LGT RAIN 64 64 100 NE20G25 29.65S FOG GREENVILLE HVY RAIN 64 64 100 E16G23 29.75S HAVELOCK FOG 69 65 86 E12 29.68S VSB 1/2 KENANSVILLE RAIN 66 64 94 CALM 29.65S FOG KINSTON HVY RAIN 66 64 94 E14 29.68F NEW BERN LGT RAIN 67 67 100 SE10 29.69S RICHLANDS HVY RAIN 66 66 100 E9 29.64F FOG ROCKY MOUNT RAIN 65 65 100 NE10G24 29.72S FOG WASHINGTON RAIN 64 64 97 E12 29.72F WHITEVILLE LGT RAIN 60 59 96 NE5 29.62S $$ AMZ130-135-150-152-154-156-158-170-250-252-270-ANZ085-086-088-633-658-670-250200- MARINE OBSERVATIONS STATION/POSITION TIME TEMP WIND PRES WAVE SWELL AIR SEA DIR/SP/G HT/PER HT/PER (UTC) (F) (DEG/KT/KT) (MB) (FT/S) (FT/S) CHESAPEAKE LIGHT NOT AVBL 64 E VA BEACH 0050 61 54 90/ 10/ 12 1011.5 7/ 7 7/ 7 DUCK 0048 63 60 90/ 19/ 21 1008.9 2 E DUCK 0030 60 N/A 6/ 7 2/12 OREGON INLET 0048 80/ 12/ 16 1008.4 13E OREGON INLT 0048 56 N/A 10/ 8 10/ 8 HATTERAS CG 0048 72 67 120/ 19/ 26 1006.7 DIAMOND BUOY 0050 75 78 120/ 31/ 37 1006.1 13/ 9 CAPE LOOKOUT 0000 71 130/ 32/ 37 1004.3 BEAUFORT LAB 0048 71 64 140/ 20/ 25 1003.7 30 SE NEW RVR IN 0008 71 140/ 21/ 33 1003.2 30 SE NEW RVR IN 0043 71 N/A 13/10 3/11 27 SE WRIGHTSVLE 0008 67 72 200/ 17/ 25 1002.4 5 SE WRIGHTSVLE 0008 66 69 220/ 4/ 10 1003.2 225 S CAPE HAT 2350 74 75 190/ 17/ 19 1001.2 13/ 8 10/ 8 41 SE CHARLESTON 0050 72 72 220/ 12/ 16 1002.8 7/ 8 5/ 8 $$

USA.gov is the U.S. government's official web portal to all federal, state and local government web resources and services.